Location: ?????
(31.9721°N, 35.0929°E)
Time: 07:56:58
(UTC+00:00)

Daily predictions for brighter satellites

Satellite Brightness Start Highest point End
(mag) Time Altitude Azimuth Time Altitude Azimuth Time Altitude Azimuth
Meteor 2-13 Rocket 4.5 15:21:01 10° S 15:27:05 74° E 15:33:13 10° N
Cosmos 1680 Rocket 4.5 15:24:18 10° NNE 15:28:33 25° ENE 15:32:46 10° ESE
CZ-4B R/B 3.4 15:25:46 10° SSE 15:31:17 82° WSW 15:36:57 10° NNW
Cosmos 1092 Rocket 4.3 15:25:56 10° SSE 15:31:48 46° E 15:37:38 10° NNE
SKYMED 2 3.6 15:30:09 10° NNE 15:34:28 66° E 15:38:46 10° S
H-2A R/B 3.7 15:32:58 10° S 15:36:48 46° W 15:40:49 10° NNW
H-2A R/B 3.2 15:33:38 10° ESE 15:37:07 19° ENE 15:40:41 10° NNE
Hubble Space Telescope 1.6 15:34:03 10° W 15:38:02 46° S 15:42:00 10° ESE
Cosmos 44 4.3 15:37:15 10° SW 15:41:41 44° WNW 15:46:27 10° NNE
Nadezhda 4 Rocket 4.2 15:37:34 10° S 15:43:49 78° W 15:50:03 10° N
Cosmos 1328 4.1 15:40:03 10° SSE 15:43:51 44° E 15:47:39 10° NNE
Cosmos 1937 Rocket 3.6 15:40:03 10° S 15:45:13 57° ESE 15:50:25 10° NNE
Cosmos 2058 Rocket 4.0 15:48:28 10° NNW 15:52:53 54° W 15:57:16 10° S
Cosmos 1340 2.5 15:51:05 10° S 15:54:47 73° E 15:58:32 10° NNE
Cosmos 1939 Rocket 3.1 15:51:41 10° S 15:55:47 79° WSW 15:59:52 10° NNW
Cosmos 1626 Rocket 3.9 15:52:16 10° SSW 15:56:36 68° W 16:01:00 10° N
Feng Yun 1-1 Rocket 4.1 15:51:54 10° SSE 15:57:16 74° ENE 16:02:48 10° N
CZ-2D R/B 3.2 15:54:24 10° SSE 15:58:13 67° ENE 16:02:02 10° N
ARGOS 4.1 15:55:00 10° ESE 15:59:08 23° ENE 16:03:17 10° NNE
ERS-2 2.0 15:57:31 10° NNE 16:01:08 82° ESE 16:04:45 10° S
CZ-2C R/B 3.1 15:59:35 10° SSE 16:04:50 72° ENE 16:10:23 10° N
Cosmos 1455 2.8 16:03:15 10° NNW 16:07:01 59° W 16:10:48 10° S
Cosmos 2112 Rocket 4.1 16:02:42 10° N 16:07:46 50° ENE 16:12:46 10° SSE
CZ-4B R/B 3.7 16:09:19 10° NNW 16:12:01 24° WNW 16:14:39 10° SW
USA 267 4.1 16:10:17 18° ENE 16:14:12 32° SE 16:19:53 10° S
Cosmos 1689 Rocket 2.0 16:13:22 10° N 16:16:12 75° WNW 16:19:01 10° SSW
CZ-2C R/B 3.3 16:11:13 10° NNE 16:16:20 36° E 16:21:27 10° SSE
Cosmos 44 Rocket 4.2 16:12:40 10° S 16:16:47 29° ESE 16:18:14 24° E
CZ-4 R/B 1.3 16:14:21 10° SSE 16:18:24 64° ENE 16:22:23 10° N
Cosmos 2026 Rocket 4.0 16:13:38 10° S 16:19:43 88° W 16:25:57 10° N
MOS 1 Rocket 4.3 16:16:34 10° N 16:20:38 43° WNW 16:24:45 10° SSW
Cosmos 1758 Rocket 3.5 16:17:01 10° S 16:21:25 84° E 16:25:54 10° N
COSMO-SKYMED 1 4.4 16:18:35 10° N 16:22:24 31° WNW 16:26:13 10° SW
Meteor 2-8 Rocket 4.3 16:16:50 10° N 16:22:56 72° E 16:29:02 10° SSE
Milstar 3 4.2 16:17:29 10° SW 16:26:15 32° SSE 16:30:26 19° ESE
Cosmos 1553 Rocket 4.2 16:25:52 10° N 16:31:57 45° E 16:37:56 10° SSE
Cosmos-2242 3.0 16:32:30 10° N 16:36:43 54° E 16:40:56 10° SSE
CREW DRAGON DEMO-1 DEB 3.1 16:34:48 10° NW 16:37:07 53° NNW 16:37:07 53° NNW
Cosmos 1833 Rocket 3.2 16:32:57 10° N 16:38:04 35° ENE 16:38:16 35° ENE
Cosmos 1655 Rocket 4.1 16:34:38 10° SSE 16:40:33 47° E 16:46:04 12° NNE
COSMOS 2406 3.5 16:35:52 10° N 16:41:22 45° ENE 16:43:19 33° ESE
YAOGAN 1 2.7 16:38:53 10° S 16:43:11 75° WSW 16:47:30 10° NNW
Centaur AC-146 4.3 16:41:49 10° SSW 16:44:09 17° SSE 16:45:21 16° SE
DMSP B5D2-2 4.2 16:47:31 45° ENE 16:48:18 49° E 16:53:22 10° S
Lacrosse 5 3.2 16:44:03 10° NW 16:48:44 40° WSW 16:53:24 10° S
Cosmos 2082 Rocket 4.0 16:46:31 10° N 16:47:48 15° NNE 16:47:48 15° NNE
Okean-O 3.2 16:47:16 10° S 16:51:37 57° W 16:55:59 10° NNW
Meteor 2-15 Rocket 4.3 16:47:12 10° N 16:53:21 68° E 16:59:25 10° SSE
Aureole 3 Rocket 3.6 16:50:51 10° NNW 16:54:11 51° W 16:58:27 10° S
CZ-3B R/B 3.6 16:50:14 10° NNW 16:54:24 46° NE 17:10:33 10° SE
Iridium 4 Rocket 4.3 16:49:35 10° NNW 16:54:43 51° W 16:59:23 10° SSW
Cosmos 1825 Rocket 4.3 16:50:38 10° SSW 16:54:52 53° W 16:59:10 10° N
Cosmos 1346 Rocket 3.7 16:51:47 10° SSW 16:55:33 46° W 16:58:25 16° N
S3M 4.0 16:50:42 10° N 16:56:35 48° E 17:02:29 10° SSE
Meteor 2-21 4.5 16:52:14 10° SSE 16:58:02 50° E 16:58:04 50° E
Cosmos 405 4.0 16:56:15 10° NNW 16:59:37 45° W 17:02:58 10° SSW
Cosmos 2150 Rocket 3.8 16:55:14 10° S 17:00:20 71° ESE 17:00:46 67° ENE
EXPRESS MD2 4.4 17:01:20 10° WNW 17:06:08 37° SW 17:06:41 34° SSW
CSL-04 Rocket 3.7 17:03:14 10° S 17:08:38 80° WSW 17:14:07 10° NNW
Meteor 2-14 Rocket 4.4 17:03:06 10° S 17:08:26 58° ESE 17:08:26 58° ESE
Cosmos 2278 Rocket 3.6 17:05:07 10° SW 17:10:18 36° WNW 17:15:21 11° N
Helios 1A Rocket 4.4 17:11:57 10° SSW 17:15:46 37° W 17:19:38 10° NNW
H-2A R/B 3.4 17:11:37 10° SSW 17:16:12 37° W 17:20:55 10° NNW
Hubble Space Telescope 2.8 17:15:34 10° WSW 17:18:32 23° SSW 17:18:32 23° SSW
Cosmos 1125 Rocket 4.4 17:28:57 10° SSW 17:32:18 41° SSW 17:32:18 41° SSW
Sakura Rocket 4.4 17:35:42 10° WSW 17:41:06 49° SW 17:41:06 49° SW
ATLAS 5 CENTAUR R/B 4.4 17:14:37 10° SSW 17:51:56 77° ESE 17:53:44 66° ENE
USA 267 3.7 17:57:38 56° WNW 17:57:38 56° WNW 18:03:38 10° WSW
